Time,TemperatureF,DewpointF,PressureIn,WindDirection,WindDirectionDegrees,WindSpeedMPH,WindSpeedGustMPH,Humidity,HourlyPrecipIn,Conditions,Clouds,dailyrainin,SoftwareType,DateUTC
2013-03-17 00:01:00,36.1,36.0,29.93,West,270,1.0,0.0,99,0.00,,,0.01,meteohub,2013-03-17 07:01:00,
2013-03-17 00:06:00,35.1,34.9,29.93,WSW,248,2.0,2.0,99,0.00,,,0.00,meteohub,2013-03-17 07:06:00,
2013-03-17 00:11:00,36.9,36.7,29.94,SW,225,0.0,2.0,99,0.00,,,0.00,meteohub,2013-03-17 07:11:00,
2013-03-17 00:16:00,36.5,36.3,29.94,WSW,248,1.0,2.0,99,0.00,,,0.00,meteohub,2013-03-17 07:16:00,
2013-03-17 00:21:00,43.3,43.2,29.93,SW,225,0.0,2.0,99,0.00,,,0.00,meteohub,2013-03-17 07:21:00,
2013-03-17 00:26:00,36.0,35.8,29.94,ENE,68,0.0,2.0,99,0.00,,,0.00,meteohub,2013-03-17 07:26:00,
2013-03-17 00:31:00,36.9,36.7,29.94,West,270,0.0,2.0,99,0.00,,,0.00,meteohub,2013-03-17 07:31:00,
2013-03-17 00:37:00,35.6,35.4,29.94,West,270,1.0,2.0,99,0.00,,,0.00,meteohub,2013-03-17 07:37:00,
2013-03-17 00:42:00,42.8,42.6,29.94,SW,225,2.0,2.0,99,0.00,,,0.00,meteohub,2013-03-17 07:42:00,
2013-03-17 00:47:00,35.6,35.4,29.94,ENE,68,1.0,2.0,99,0.00,,,0.00,meteohub,2013-03-17 07:47:00,
2013-03-17 00:52:00,37.2,37.0,29.94,WSW,248,1.0,2.0,99,0.00,,,0.00,meteohub,2013-03-17 07:52:00,
2013-03-17 00:57:00,35.6,35.4,29.94,WSW,248,1.0,2.0,99,0.00,,,0.00,meteohub,2013-03-17 07:57:00,
2013-03-17 01:02:00,35.2,35.1,29.94,SSW,203,1.0,2.0,99,0.00,,,0.00,meteohub,2013-03-17 08:02:00,
2013-03-17 01:07:00,35.8,35.6,29.95,North,0,2.0,2.0,99,0.00,,,0.00,meteohub,2013-03-17 08:07:00,
2013-03-17 01:12:00,35.6,35.4,29.94,WSW,248,0.0,2.0,99,0.00,,,0.00,meteohub,2013-03-17 08:12:00,
2013-03-17 01:17:00,43.3,43.2,29.95,WSW,248,1.0,2.0,99,0.00,,,0.00,meteohub,2013-03-17 08:17:00,
2013-03-17 01:22:00,34.5,34.3,29.95,South,180,1.0,2.0,99,0.00,,,0.00,meteohub,2013-03-17 08:22:00,
2013-03-17 01:27:00,36.3,36.1,29.96,West,270,0.0,2.0,99,0.00,,,0.00,meteohub,2013-03-17 08:27:00,
2013-03-17 01:32:00,42.4,42.3,29.95,SW,225,0.0,2.0,99,0.00,,,0.00,meteohub,2013-03-17 08:32:00,
2013-03-17 01:37:00,36.0,35.8,29.96,WSW,248,0.0,1.0,99,0.00,,,0.00,meteohub,2013-03-17 08:37:00,
2013-03-17 01:42:00,42.3,42.1,29.96,SW,225,0.0,2.0,99,0.00,,,0.00,meteohub,2013-03-17 08:42:00,
2013-03-17 01:47:00,36.7,36.5,29.96,SW,225,2.0,2.0,99,0.00,,,0.00,meteohub,2013-03-17 08:47:00,
2013-03-17 01:52:00,35.2,35.1,29.96,West,270,1.0,2.0,99,0.00,,,0.00,meteohub,2013-03-17 08:52:00,
2013-03-17 01:57:00,42.3,42.1,29.96,SW,225,0.0,2.0,99,0.00,,,0.00,meteohub,2013-03-17 08:57:00,
2013-03-17 02:02:00,36.0,35.8,29.96,SW,225,1.0,2.0,99,0.00,,,0.00,meteohub,2013-03-17 09:02:00,
2013-03-17 02:07:00,35.2,35.1,29.96,West,270,0.0,2.0,99,0.00,,,0.00,meteohub,2013-03-17 09:07:00,
2013-03-17 02:12:00,34.2,34.0,29.97,WSW,248,1.0,2.0,99,0.00,,,0.00,meteohub,2013-03-17 09:12:00,
2013-03-17 02:17:00,34.0,33.8,29.96,WSW,248,1.0,2.0,99,0.00,,,0.00,meteohub,2013-03-17 09:17:00,
2013-03-17 02:22:00,33.6,33.4,29.97,SE,135,0.0,2.0,99,0.00,,,0.00,meteohub,2013-03-17 09:22:00,
2013-03-17 02:27:00,40.3,40.1,29.97,WSW,248,2.0,2.0,99,0.00,,,0.00,meteohub,2013-03-17 09:27:00,
2013-03-17 02:33:00,41.7,41.5,29.97,SW,225,2.0,2.0,99,0.00,,,0.00,meteohub,2013-03-17 09:33:00,
2013-03-17 02:38:00,35.1,34.9,29.97,West,270,1.0,2.0,99,0.00,,,0.00,meteohub,2013-03-17 09:38:00,
2013-03-17 02:43:00,42.1,41.9,29.98,SW,225,0.0,2.0,99,0.00,,,0.00,meteohub,2013-03-17 09:43:00,
2013-03-17 02:48:00,35.4,35.2,29.98,West,270,1.0,2.0,99,0.00,,,0.00,meteohub,2013-03-17 09:48:00,
2013-03-17 02:53:00,42.4,42.3,29.98,SW,225,0.0,2.0,99,0.00,,,0.00,meteohub,2013-03-17 09:53:00,
2013-03-17 02:58:00,39.6,39.4,29.98,West,270,1.0,2.0,99,0.00,,,0.00,meteohub,2013-03-17 09:58:00,
2013-03-17 03:03:00,34.7,34.5,29.99,WSW,248,2.0,2.0,99,0.00,,,0.00,meteohub,2013-03-17 10:03:00,
2013-03-17 03:08:00,39.7,39.6,29.99,West,270,0.0,3.0,99,0.00,,,0.00,meteohub,2013-03-17 10:08:00,
2013-03-17 03:13:00,41.7,41.5,29.99,North,0,0.0,3.0,99,0.00,,,0.00,meteohub,2013-03-17 10:13:00,
2013-03-17 03:18:00,34.7,34.5,29.99,SW,225,2.0,3.0,99,0.00,,,0.00,meteohub,2013-03-17 10:18:00,
2013-03-17 03:24:00,43.0,42.8,29.99,South,180,0.0,2.0,99,0.00,,,0.00,meteohub,2013-03-17 10:24:00,
2013-03-17 03:29:00,39.6,39.4,29.99,West,270,1.0,2.0,99,0.00,,,0.00,meteohub,2013-03-17 10:29:00,
2013-03-17 03:34:00,36.1,36.0,29.99,West,270,1.0,3.0,99,0.00,,,0.00,meteohub,2013-03-17 10:34:00,
2013-03-17 03:39:00,35.8,35.6,29.99,South,180,0.0,3.0,99,0.00,,,0.00,meteohub,2013-03-17 10:39:00,
2013-03-17 03:44:00,34.9,34.7,30.00,West,270,0.0,3.0,99,0.00,,,0.00,meteohub,2013-03-17 10:44:00,
2013-03-17 03:49:00,34.9,34.7,30.00,West,270,0.0,3.0,99,0.00,,,0.00,meteohub,2013-03-17 10:49:00,
2013-03-17 03:54:00,34.0,33.8,30.00,WSW,248,3.0,3.0,99,0.00,,,0.00,meteohub,2013-03-17 10:54:00,
2013-03-17 03:59:00,34.5,34.3,30.00,West,270,2.0,2.0,99,0.00,,,0.00,meteohub,2013-03-17 10:59:00,
2013-03-17 04:04:00,41.4,41.2,30.00,North,0,2.0,3.0,99,0.00,,,0.00,meteohub,2013-03-17 11:04:00,
2013-03-17 04:09:00,36.5,36.3,30.00,West,270,2.0,3.0,99,0.00,,,0.00,meteohub,2013-03-17 11:09:00,
2013-03-17 04:14:00,37.0,36.9,30.01,West,270,2.0,3.0,99,0.00,,,0.00,meteohub,2013-03-17 11:14:00,
2013-03-17 04:19:00,34.3,34.2,30.01,West,270,2.0,3.0,99,0.00,,,0.00,meteohub,2013-03-17 11:19:00,
2013-03-17 04:24:00,42.3,42.1,30.01,SW,225,1.0,3.0,99,0.00,,,0.00,meteohub,2013-03-17 11:24:00,
2013-03-17 04:29:00,43.9,43.7,30.01,SW,225,2.0,3.0,99,0.00,,,0.00,meteohub,2013-03-17 11:29:00,
2013-03-17 04:34:00,36.0,35.8,30.01,West,270,1.0,3.0,99,0.00,,,0.00,meteohub,2013-03-17 11:34:00,
2013-03-17 04:39:00,41.9,41.7,30.01,SW,225,2.0,3.0,99,0.00,,,0.00,meteohub,2013-03-17 11:39:00,
2013-03-17 04:44:00,39.7,39.6,30.01,West,270,1.0,3.0,99,0.00,,,0.00,meteohub,2013-03-17 11:44:00,
2013-03-17 04:49:00,42.1,41.9,30.01,SW,225,1.0,2.0,99,0.00,,,0.00,meteohub,2013-03-17 11:49:00,
2013-03-17 04:54:00,42.1,41.9,30.01,SW,225,0.0,3.0,99,0.00,,,0.00,meteohub,2013-03-17 11:54:00,
2013-03-17 04:59:00,39.6,39.4,30.02,West,270,0.0,3.0,99,0.00,,,0.00,meteohub,2013-03-17 11:59:00,
2013-03-17 05:04:00,35.2,35.1,30.02,West,270,2.0,3.0,99,0.00,,,0.00,meteohub,2013-03-17 12:04:00,
2013-03-17 05:09:00,35.2,35.1,30.02,West,270,1.0,2.0,99,0.00,,,0.00,meteohub,2013-03-17 12:09:00,
2013-03-17 05:14:00,42.1,41.9,30.02,SW,225,0.0,4.0,99,0.00,,,0.00,meteohub,2013-03-17 12:14:00,
2013-03-17 05:19:00,36.0,35.8,30.03,West,270,1.0,4.0,99,0.00,,,0.00,meteohub,2013-03-17 12:19:00,
2013-03-17 05:24:00,39.4,39.2,30.03,West,270,0.0,4.0,99,0.00,,,0.00,meteohub,2013-03-17 12:24:00,
2013-03-17 05:29:00,34.3,34.2,30.03,WSW,248,1.0,2.0,99,0.00,,,0.00,meteohub,2013-03-17 12:29:00,
2013-03-17 05:34:00,34.5,34.3,30.03,WSW,248,0.0,1.0,99,0.00,,,0.00,meteohub,2013-03-17 12:34:00,
2013-03-17 05:40:00,34.5,34.3,30.04,WSW,248,1.0,1.0,99,0.00,,,0.00,meteohub,2013-03-17 12:40:00,
2013-03-17 05:45:00,35.6,35.4,30.03,West,270,0.0,1.0,99,0.00,,,0.00,meteohub,2013-03-17 12:45:00,
2013-03-17 05:50:00,35.6,35.4,30.04,West,270,0.0,1.0,99,0.00,,,0.00,meteohub,2013-03-17 12:50:00,
2013-03-17 05:55:00,35.6,35.4,30.04,West,270,0.0,1.0,99,0.00,,,0.00,meteohub,2013-03-17 12:55:00,
2013-03-17 06:00:00,42.4,42.3,30.04,SW,225,1.0,1.0,99,0.00,,,0.00,meteohub,2013-03-17 13:00:00,
2013-03-17 06:05:00,42.1,41.9,30.04,SW,225,1.0,1.0,99,0.00,,,0.00,meteohub,2013-03-17 13:05:00,
2013-03-17 06:10:00,34.2,34.0,30.04,SSW,203,2.0,2.0,99,0.00,,,0.00,meteohub,2013-03-17 13:10:00,
2013-03-17 06:15:00,34.9,34.7,30.04,North,0,0.0,2.0,99,0.00,,,0.00,meteohub,2013-03-17 13:15:00,
2013-03-17 06:21:00,35.1,34.9,30.05,North,0,0.0,2.0,99,0.00,,,0.00,meteohub,2013-03-17 13:21:00,
2013-03-17 06:26:00,34.9,34.7,30.06,North,0,0.0,2.0,99,0.00,,,0.00,meteohub,2013-03-17 13:26:00,
2013-03-17 06:31:00,34.9,34.7,30.05,North,0,0.0,1.0,99,0.00,,,0.00,meteohub,2013-03-17 13:31:00,
2013-03-17 06:36:00,34.9,34.7,30.06,North,0,0.0,0.0,99,0.00,,,0.00,meteohub,2013-03-17 13:36:00,
2013-03-17 06:41:00,39.7,39.6,30.05,West,270,0.0,0.0,99,0.00,,,0.00,meteohub,2013-03-17 13:41:00,
2013-03-17 06:46:00,35.6,35.4,30.05,West,270,1.0,1.0,99,0.00,,,0.00,meteohub,2013-03-17 13:46:00,
2013-03-17 06:51:00,34.9,34.7,30.05,WSW,248,2.0,2.0,99,0.00,,,0.00,meteohub,2013-03-17 13:51:00,
2013-03-17 06:56:00,35.4,35.2,30.06,SW,225,2.0,2.0,99,0.01,,,0.01,meteohub,2013-03-17 13:56:00,
2013-03-17 07:01:00,39.9,39.7,30.06,West,270,1.0,2.0,99,0.01,,,0.01,meteohub,2013-03-17 14:01:00,
2013-03-17 07:06:00,40.1,39.9,30.07,West,270,0.0,2.0,99,0.01,,,0.01,meteohub,2013-03-17 14:06:00,
2013-03-17 07:11:00,36.1,36.0,30.06,West,270,0.0,1.0,99,0.01,,,0.01,meteohub,2013-03-17 14:11:00,
2013-03-17 07:16:00,40.1,39.9,30.06,West,270,0.0,2.0,99,0.01,,,0.01,meteohub,2013-03-17 14:16:00,
2013-03-17 07:21:00,35.8,35.6,30.07,WSW,248,1.0,2.0,99,0.01,,,0.01,meteohub,2013-03-17 14:21:00,
2013-03-17 07:26:00,36.3,36.1,30.07,West,270,2.0,2.0,99,0.01,,,0.01,meteohub,2013-03-17 14:26:00,
2013-03-17 07:32:00,35.8,35.6,30.06,West,270,2.0,2.0,99,0.01,,,0.01,meteohub,2013-03-17 14:32:00,
2013-03-17 07:37:00,43.2,43.0,30.06,SW,225,1.0,3.0,99,0.01,,,0.01,meteohub,2013-03-17 14:37:00,
2013-03-17 07:42:00,36.1,36.0,30.07,SW,225,2.0,4.0,99,0.01,,,0.01,meteohub,2013-03-17 14:42:00,
2013-03-17 07:47:00,36.7,36.5,30.08,West,270,0.0,4.0,99,0.01,,,0.01,meteohub,2013-03-17 14:47:00,
2013-03-17 07:52:00,35.6,35.4,30.07,SW,225,2.0,2.0,99,0.01,,,0.01,meteohub,2013-03-17 14:52:00,
2013-03-17 07:57:00,42.6,42.4,30.07,SW,225,2.0,2.0,99,0.00,,,0.01,meteohub,2013-03-17 14:57:00,
2013-03-17 08:02:00,36.0,35.8,30.08,SW,225,2.0,3.0,99,0.00,,,0.01,meteohub,2013-03-17 15:02:00,
2013-03-17 08:07:00,36.1,36.0,30.08,SW,225,3.0,3.0,99,0.00,,,0.01,meteohub,2013-03-17 15:07:00,
2013-03-17 08:12:00,43.0,42.8,30.08,SW,225,2.0,4.0,99,0.00,,,0.01,meteohub,2013-03-17 15:12:00,
2013-03-17 08:17:00,37.6,37.4,30.08,West,270,2.0,4.0,99,0.00,,,0.01,meteohub,2013-03-17 15:17:00,
2013-03-17 08:22:00,44.8,44.6,30.09,South,180,3.0,4.0,99,0.00,,,0.01,meteohub,2013-03-17 15:22:00,
2013-03-17 08:27:00,38.3,37.6,30.09,SW,225,5.0,5.0,97,0.00,,,0.01,meteohub,2013-03-17 15:27:00,
2013-03-17 08:32:00,38.5,37.2,30.09,SW,225,4.0,5.0,95,0.00,,,0.01,meteohub,2013-03-17 15:32:00,
2013-03-17 08:37:00,38.5,36.9,30.10,SW,225,2.0,6.0,94,0.00,,,0.01,meteohub,2013-03-17 15:37:00,
2013-03-17 08:42:00,39.4,37.6,30.10,West,270,3.0,6.0,93,0.00,,,0.01,meteohub,2013-03-17 15:42:00,
2013-03-17 08:47:00,45.0,42.8,30.10,SW,225,1.0,4.0,92,0.00,,,0.01,meteohub,2013-03-17 15:47:00,
2013-03-17 08:52:00,39.0,36.7,30.10,South,180,2.0,4.0,91,0.00,,,0.01,meteohub,2013-03-17 15:52:00,
2013-03-17 08:57:00,45.5,43.3,30.10,SW,225,2.0,3.0,92,0.00,,,0.01,meteohub,2013-03-17 15:57:00,
2013-03-17 09:02:00,39.4,36.5,30.11,South,180,4.0,4.0,89,0.00,,,0.01,meteohub,2013-03-17 16:02:00,
2013-03-17 09:07:00,42.8,39.7,30.11,West,270,2.0,6.0,89,0.00,,,0.01,meteohub,2013-03-17 16:07:00,
2013-03-17 09:12:00,45.7,42.1,30.11,South,180,6.0,6.0,87,0.00,,,0.01,meteohub,2013-03-17 16:12:00,
2013-03-17 09:17:00,40.1,36.3,30.12,South,180,2.0,6.0,86,0.00,,,0.01,meteohub,2013-03-17 16:17:00,
2013-03-17 09:22:00,46.0,42.4,30.12,SW,225,2.0,6.0,87,0.00,,,0.01,meteohub,2013-03-17 16:22:00,
2013-03-17 09:27:00,42.4,37.9,30.12,North,0,1.0,6.0,84,0.00,,,0.01,meteohub,2013-03-17 16:27:00,
2013-03-17 09:32:00,41.4,36.9,30.12,SW,225,2.0,4.0,84,0.00,,,0.01,meteohub,2013-03-17 16:32:00,
2013-03-17 09:37:00,41.5,36.7,30.12,West,270,1.0,5.0,83,0.00,,,0.01,meteohub,2013-03-17 16:37:00,
2013-03-17 09:43:00,41.7,36.7,30.13,North,0,2.0,5.0,82,0.00,,,0.01,meteohub,2013-03-17 16:43:00,
2013-03-17 09:48:00,41.4,36.3,30.12,South,180,2.0,5.0,82,0.00,,,0.01,meteohub,2013-03-17 16:48:00,
2013-03-17 09:53:00,41.9,36.9,30.13,West,270,1.0,5.0,82,0.00,,,0.01,meteohub,2013-03-17 16:53:00,
2013-03-17 09:58:00,41.9,37.0,30.13,WSW,248,1.0,5.0,83,0.00,,,0.01,meteohub,2013-03-17 16:58:00,
2013-03-17 10:03:00,44.4,39.2,30.13,WSW,248,2.0,5.0,82,0.00,,,0.01,meteohub,2013-03-17 17:03:00,
2013-03-17 10:08:00,45.7,40.5,30.13,SW,225,3.0,4.0,82,0.00,,,0.01,meteohub,2013-03-17 17:08:00,
2013-03-17 10:13:00,40.6,35.6,30.12,SW,225,8.0,8.0,82,0.00,,,0.01,meteohub,2013-03-17 17:13:00,
2013-03-17 10:18:00,41.0,36.0,30.13,SW,225,3.0,8.0,82,0.00,,,0.01,meteohub,2013-03-17 17:18:00,
2013-03-17 10:23:00,41.0,36.0,30.14,SW,225,2.0,8.0,82,0.00,,,0.01,meteohub,2013-03-17 17:23:00,
2013-03-17 10:28:00,41.2,35.8,30.14,NE,45,1.0,8.0,81,0.00,,,0.01,meteohub,2013-03-17 17:28:00,
2013-03-17 10:33:00,41.5,35.8,30.14,SSW,203,3.0,4.0,80,0.00,,,0.01,meteohub,2013-03-17 17:33:00,
2013-03-17 10:38:00,42.3,36.1,30.14,SW,225,2.0,4.0,79,0.00,,,0.01,meteohub,2013-03-17 17:38:00,
2013-03-17 10:43:00,48.9,42.1,30.14,SE,135,3.0,4.0,77,0.00,,,0.01,meteohub,2013-03-17 17:43:00,
2013-03-17 10:48:00,43.2,36.5,30.14,West,270,1.0,5.0,77,0.00,,,0.01,meteohub,2013-03-17 17:48:00,
2013-03-17 10:53:00,42.8,35.4,30.14,South,180,6.0,6.0,75,0.00,,,0.01,meteohub,2013-03-17 17:53:00,
2013-03-17 10:58:00,43.5,35.8,30.14,West,270,2.0,6.0,74,0.00,,,0.01,meteohub,2013-03-17 17:58:00,
2013-03-17 11:03:00,43.3,34.9,30.14,SW,225,4.0,6.0,72,0.00,,,0.01,meteohub,2013-03-17 18:03:00,
2013-03-17 11:08:00,45.1,37.0,30.14,SW,225,7.0,7.0,73,0.00,,,0.01,meteohub,2013-03-17 18:08:00,
2013-03-17 11:13:00,49.3,41.4,30.15,East,90,1.0,7.0,74,0.00,,,0.01,meteohub,2013-03-17 18:13:00,
2013-03-17 11:18:00,43.3,35.6,30.15,South,180,5.0,8.0,74,0.00,,,0.01,meteohub,2013-03-17 18:18:00,
2013-03-17 11:23:00,44.4,36.0,30.14,SW,225,2.0,8.0,72,0.00,,,0.01,meteohub,2013-03-17 18:23:00,
2013-03-17 11:28:00,43.3,34.9,30.15,SW,225,3.0,8.0,72,0.00,,,0.01,meteohub,2013-03-17 18:28:00,
2013-03-17 11:33:00,54.3,45.1,30.14,SW,225,5.0,6.0,71,0.00,,,0.01,meteohub,2013-03-17 18:33:00,
2013-03-17 11:38:00,48.4,37.2,30.14,West,270,4.0,6.0,65,0.00,,,0.01,meteohub,2013-03-17 18:38:00,
2013-03-17 11:43:00,48.6,36.9,30.14,WSW,248,4.0,5.0,64,0.00,,,0.01,meteohub,2013-03-17 18:43:00,
2013-03-17 11:48:00,54.1,41.9,30.14,SE,135,2.0,5.0,63,0.00,,,0.01,meteohub,2013-03-17 18:48:00,
2013-03-17 11:53:00,48.2,35.8,30.14,SSW,203,2.0,5.0,62,0.00,,,0.01,meteohub,2013-03-17 18:53:00,
2013-03-17 12:45:00,51.3,36.5,30.14,South,180,6.0,9.0,57,0.00,,,0.01,meteohub,2013-03-17 19:45:00,
2013-03-17 12:50:00,52.7,37.4,30.13,NE,45,3.0,9.0,56,0.00,,,0.01,meteohub,2013-03-17 19:50:00,
2013-03-17 12:55:00,50.5,36.0,30.14,SW,225,3.0,8.0,57,0.00,,,0.01,meteohub,2013-03-17 19:55:00,
2013-03-17 13:00:00,56.5,40.5,30.13,West,270,4.0,6.0,55,0.00,,,0.01,meteohub,2013-03-17 20:00:00,
2013-03-17 13:05:00,53.2,37.4,30.14,North,0,4.0,9.0,55,0.00,,,0.01,meteohub,2013-03-17 20:05:00,
2013-03-17 13:10:00,57.4,39.4,30.13,SW,225,5.0,9.0,51,0.00,,,0.01,meteohub,2013-03-17 20:10:00,
2013-03-17 13:15:00,52.9,36.1,30.13,SW,225,4.0,6.0,53,0.00,,,0.01,meteohub,2013-03-17 20:15:00,
2013-03-17 13:20:00,53.8,36.5,30.13,West,270,3.0,6.0,52,0.00,,,0.01,meteohub,2013-03-17 20:20:00,
2013-03-17 13:25:00,52.7,36.0,30.13,WSW,248,4.0,6.0,53,0.00,,,0.01,meteohub,2013-03-17 20:25:00,
2013-03-17 13:30:00,52.3,35.2,30.13,WSW,248,6.0,7.0,52,0.00,,,0.01,meteohub,2013-03-17 20:30:00,
2013-03-17 13:35:00,51.8,36.1,30.13,West,270,2.0,11.0,55,0.00,,,0.01,meteohub,2013-03-17 20:35:00,
2013-03-17 13:41:00,52.5,36.3,30.13,West,270,4.0,11.0,54,0.00,,,0.01,meteohub,2013-03-17 20:41:00,
2013-03-17 13:46:00,51.6,35.6,30.12,South,180,4.0,11.0,54,0.00,,,0.01,meteohub,2013-03-17 20:46:00,
2013-03-17 13:51:00,55.6,37.8,30.12,SW,225,4.0,5.0,51,0.00,,,0.01,meteohub,2013-03-17 20:51:00,
2013-03-17 13:56:00,57.0,39.0,30.12,SW,225,3.0,5.0,51,0.00,,,0.01,meteohub,2013-03-17 20:56:00,
2013-03-17 14:01:00,56.1,38.7,30.12,SW,225,2.0,5.0,52,0.00,,,0.01,meteohub,2013-03-17 21:01:00,
2013-03-17 14:06:00,51.4,33.4,30.12,South,180,2.0,5.0,50,0.00,,,0.01,meteohub,2013-03-17 21:06:00,
2013-03-17 14:11:00,50.7,35.1,30.12,West,270,2.0,4.0,55,0.00,,,0.01,meteohub,2013-03-17 21:11:00,
2013-03-17 14:16:00,49.3,34.7,30.12,SW,225,5.0,5.0,57,0.00,,,0.01,meteohub,2013-03-17 21:16:00,
2013-03-17 14:21:00,48.4,34.7,30.11,South,180,9.0,9.0,59,0.00,,,0.01,meteohub,2013-03-17 21:21:00,
2013-03-17 14:27:00,50.7,37.4,30.12,West,270,5.0,9.0,60,0.00,,,0.01,meteohub,2013-03-17 21:27:00,
2013-03-17 14:32:00,50.5,37.2,30.12,West,270,2.0,9.0,60,0.00,,,0.01,meteohub,2013-03-17 21:32:00,
2013-03-17 14:37:00,47.8,34.7,30.11,SW,225,4.0,9.0,60,0.00,,,0.01,meteohub,2013-03-17 21:37:00,
2013-03-17 14:42:00,46.9,34.2,30.12,South,180,3.0,11.0,61,0.00,,,0.01,meteohub,2013-03-17 21:42:00,
2013-03-17 14:48:00,46.4,34.5,30.12,SW,225,5.0,11.0,63,0.00,,,0.01,meteohub,2013-03-17 21:48:00,
2013-03-17 14:53:00,46.4,34.9,30.12,South,180,3.0,11.0,64,0.00,,,0.01,meteohub,2013-03-17 21:53:00,
2013-03-17 14:58:00,46.2,34.7,30.12,SW,225,3.0,6.0,64,0.00,,,0.01,meteohub,2013-03-17 21:58:00,
2013-03-17 15:03:00,46.0,34.5,30.12,SW,225,2.0,6.0,64,0.00,,,0.01,meteohub,2013-03-17 22:03:00,
2013-03-17 15:07:00,46.6,35.1,30.11,West,270,1.0,8.0,64,0.00,,,0.01,meteohub,2013-03-17 22:07:00,
2013-03-17 15:13:00,46.4,35.2,30.12,North,0,1.0,8.0,65,0.00,,,0.01,meteohub,2013-03-17 22:13:00,
2013-03-17 15:18:00,46.2,33.4,30.12,West,270,1.0,4.0,61,0.00,,,0.01,meteohub,2013-03-17 22:18:00,
2013-03-17 15:23:00,50.7,38.7,30.12,North,0,3.0,4.0,63,0.00,,,0.01,meteohub,2013-03-17 22:23:00,
2013-03-17 15:28:00,46.9,36.1,30.12,WSW,248,1.0,4.0,66,0.00,,,0.01,meteohub,2013-03-17 22:28:00,
2013-03-17 15:33:00,45.9,34.7,30.11,South,180,3.0,3.0,65,0.00,,,0.01,meteohub,2013-03-17 22:33:00,
2013-03-17 15:38:00,46.6,35.4,30.11,West,270,1.0,6.0,65,0.00,,,0.01,meteohub,2013-03-17 22:38:00,
2013-03-17 15:43:00,46.4,35.2,30.12,NE,45,1.0,6.0,65,0.00,,,0.01,meteohub,2013-03-17 22:43:00,
2013-03-17 15:48:00,46.6,35.4,30.11,West,270,1.0,6.0,65,0.00,,,0.01,meteohub,2013-03-17 22:48:00,
2013-03-17 15:53:00,45.7,35.4,30.12,North,0,1.0,3.0,67,0.00,,,0.01,meteohub,2013-03-17 22:53:00,
2013-03-17 15:58:00,45.0,35.4,30.12,North,0,1.0,3.0,69,0.00,,,0.01,meteohub,2013-03-17 22:58:00,
2013-03-17 16:03:00,44.6,35.8,30.12,North,0,2.0,3.0,71,0.00,,,0.01,meteohub,2013-03-17 23:03:00,
2013-03-17 16:08:00,50.0,41.7,30.13,North,0,1.0,3.0,73,0.00,,,0.01,meteohub,2013-03-17 23:08:00,
2013-03-17 16:13:00,42.8,36.1,30.13,NE,45,3.0,3.0,77,0.00,,,0.01,meteohub,2013-03-17 23:13:00,
2013-03-17 16:18:00,41.4,36.5,30.13,SE,135,2.0,3.0,83,0.01,,,0.02,meteohub,2013-03-17 23:18:00,
2013-03-17 16:23:00,45.9,42.3,30.12,North,0,1.0,3.0,87,0.02,,,0.04,meteohub,2013-03-17 23:23:00,
2013-03-17 16:28:00,40.3,37.6,30.13,South,180,2.0,3.0,90,0.02,,,0.04,meteohub,2013-03-17 23:28:00,
2013-03-17 16:33:00,40.6,38.5,30.13,North,0,0.0,2.0,92,0.02,,,0.04,meteohub,2013-03-17 23:33:00,
2013-03-17 16:38:00,41.4,39.2,30.13,North,0,2.0,2.0,92,0.02,,,0.04,meteohub,2013-03-17 23:38:00,
2013-03-17 16:43:00,40.6,38.5,30.13,North,0,1.0,2.0,92,0.02,,,0.04,meteohub,2013-03-17 23:43:00,
2013-03-17 16:48:00,41.2,39.4,30.12,North,0,1.0,2.0,93,0.04,,,0.05,meteohub,2013-03-17 23:48:00,
2013-03-17 16:53:00,41.2,39.6,30.13,North,0,0.0,2.0,94,0.04,,,0.05,meteohub,2013-03-17 23:53:00,
2013-03-17 16:58:00,40.8,39.6,30.13,SE,135,0.0,2.0,95,0.04,,,0.05,meteohub,2013-03-17 23:58:00,
2013-03-17 17:03:00,41.7,40.5,30.13,North,0,0.0,1.0,95,0.04,,,0.05,meteohub,2013-03-18 00:03:00,
2013-03-17 17:08:00,41.7,40.5,30.13,North,0,0.0,1.0,95,0.04,,,0.05,meteohub,2013-03-18 00:08:00,
2013-03-17 17:13:00,42.3,41.0,30.13,West,270,0.0,1.0,95,0.02,,,0.05,meteohub,2013-03-18 00:13:00,
2013-03-17 17:18:00,42.8,41.5,30.13,North,0,1.0,1.0,95,0.01,,,0.05,meteohub,2013-03-18 00:18:00,
2013-03-17 17:23:00,43.0,40.8,30.13,North,0,1.0,1.0,92,0.01,,,0.05,meteohub,2013-03-18 00:23:00,
2013-03-17 17:28:00,47.3,45.7,30.13,North,0,1.0,2.0,94,0.01,,,0.05,meteohub,2013-03-18 00:28:00,
2013-03-17 17:34:00,41.4,39.7,30.13,NE,45,1.0,2.0,94,0.01,,,0.05,meteohub,2013-03-18 00:34:00,
2013-03-17 17:39:00,41.7,39.9,30.13,North,0,0.0,2.0,93,0.01,,,0.05,meteohub,2013-03-18 00:39:00,
2013-03-17 17:44:00,41.5,40.3,30.13,North,0,0.0,1.0,95,0.00,,,0.05,meteohub,2013-03-18 00:44:00,
2013-03-17 17:49:00,41.2,39.9,30.13,North,0,0.0,1.0,95,0.00,,,0.05,meteohub,2013-03-18 00:49:00,
2013-03-17 17:54:00,40.6,39.6,30.13,North,0,1.0,1.0,96,0.00,,,0.05,meteohub,2013-03-18 00:54:00,
2013-03-17 17:59:00,40.5,39.4,30.14,North,0,2.0,3.0,96,0.00,,,0.05,meteohub,2013-03-18 00:59:00,
2013-03-17 18:04:00,40.8,39.6,30.14,West,270,2.0,3.0,95,0.00,,,0.05,meteohub,2013-03-18 01:04:00,
2013-03-17 18:09:00,39.0,37.9,30.13,NE,45,2.0,3.0,96,0.00,,,0.05,meteohub,2013-03-18 01:09:00,
2013-03-17 18:14:00,39.0,37.8,30.14,North,0,1.0,2.0,95,0.00,,,0.05,meteohub,2013-03-18 01:14:00,
2013-03-17 18:19:00,40.5,39.7,30.13,North,0,0.0,3.0,97,0.00,,,0.05,meteohub,2013-03-18 01:19:00,
2013-03-17 18:24:00,38.5,37.9,30.13,North,0,1.0,3.0,98,0.01,,,0.06,meteohub,2013-03-18 01:24:00,
2013-03-17 18:29:00,38.5,38.3,30.13,North,0,0.0,3.0,99,0.01,,,0.06,meteohub,2013-03-18 01:29:00,
2013-03-17 18:34:00,38.5,38.3,30.13,North,0,1.0,2.0,99,0.01,,,0.06,meteohub,2013-03-18 01:34:00,
2013-03-17 18:39:00,40.1,39.9,30.13,North,0,1.0,1.0,99,0.01,,,0.06,meteohub,2013-03-18 01:39:00,
2013-03-17 18:44:00,39.2,39.0,30.12,North,0,0.0,1.0,99,0.01,,,0.06,meteohub,2013-03-18 01:44:00,
2013-03-17 18:49:00,38.3,38.1,30.13,West,270,0.0,1.0,99,0.01,,,0.06,meteohub,2013-03-18 01:49:00,
2013-03-17 18:54:00,36.9,36.7,30.13,SE,135,0.0,1.0,99,0.02,,,0.07,meteohub,2013-03-18 01:54:00,
2013-03-17 18:59:00,37.0,36.9,30.12,NE,45,0.0,1.0,99,0.02,,,0.07,meteohub,2013-03-18 01:59:00,
2013-03-17 19:04:00,37.0,36.9,30.13,NE,45,0.0,1.0,99,0.02,,,0.07,meteohub,2013-03-18 02:04:00,
2013-03-17 19:09:00,36.9,36.7,30.12,North,0,1.0,1.0,99,0.02,,,0.07,meteohub,2013-03-18 02:09:00,
2013-03-17 19:14:00,37.4,37.2,30.13,North,0,0.0,1.0,99,0.02,,,0.07,meteohub,2013-03-18 02:14:00,
2013-03-17 19:19:00,37.2,37.0,30.12,North,0,0.0,1.0,99,0.01,,,0.07,meteohub,2013-03-18 02:19:00,
2013-03-17 19:24:00,36.7,36.5,30.12,SE,135,1.0,1.0,99,0.01,,,0.07,meteohub,2013-03-18 02:24:00,
2013-03-17 19:29:00,36.7,36.5,30.12,ENE,68,0.0,1.0,99,0.01,,,0.07,meteohub,2013-03-18 02:29:00,
2013-03-17 19:34:00,38.3,38.1,30.12,North,0,1.0,2.0,99,0.01,,,0.07,meteohub,2013-03-18 02:34:00,
2013-03-17 19:39:00,38.1,37.9,30.12,North,-999,-999.0,2.0,99,0.01,,,0.07,meteohub,2013-03-18 02:39:00,
2013-03-17 19:44:00,38.1,37.9,30.12,North,-999,-999.0,2.0,99,0.01,,,0.07,meteohub,2013-03-18 02:44:00,
2013-03-17 19:50:00,37.9,37.8,30.12,North,-999,-999.0,1.0,99,0.01,,,0.07,meteohub,2013-03-18 02:50:00,
2013-03-17 19:55:00,37.9,37.8,30.12,North,-999,-999.0,-999.0,99,0.00,,,0.07,meteohub,2013-03-18 02:55:00,
2013-03-17 20:00:00,37.8,37.6,30.12,North,-999,-999.0,-999.0,99,0.00,,,0.07,meteohub,2013-03-18 03:00:00,
2013-03-17 20:05:00,41.2,41.0,30.12,West,270,1.0,-999.0,99,0.00,,,0.07,meteohub,2013-03-18 03:05:00,
2013-03-17 20:10:00,37.2,37.0,30.13,West,270,0.0,-999.0,99,0.00,,,0.07,meteohub,2013-03-18 03:10:00,
2013-03-17 20:15:00,35.2,35.1,30.13,WSW,248,2.0,2.0,99,0.00,,,0.07,meteohub,2013-03-18 03:15:00,
2013-03-17 20:20:00,37.2,37.0,30.12,West,270,0.0,2.0,99,0.00,,,0.07,meteohub,2013-03-18 03:20:00,
2013-03-17 20:25:00,37.4,37.2,30.13,West,270,0.0,2.0,99,0.00,,,0.07,meteohub,2013-03-18 03:25:00,
2013-03-17 20:30:00,36.7,36.5,30.13,WSW,248,0.0,1.0,99,0.01,,,0.08,meteohub,2013-03-18 03:30:00,
2013-03-17 20:35:00,36.0,35.8,30.13,South,180,1.0,2.0,99,0.01,,,0.08,meteohub,2013-03-18 03:35:00,
2013-03-17 20:40:00,36.3,36.1,30.13,SW,225,0.0,2.0,99,0.01,,,0.08,meteohub,2013-03-18 03:40:00,
2013-03-17 20:45:00,37.8,37.6,30.13,SW,225,1.0,2.0,99,0.01,,,0.08,meteohub,2013-03-18 03:45:00,
2013-03-17 20:50:00,43.3,43.2,30.13,SW,225,2.0,2.0,99,0.01,,,0.08,meteohub,2013-03-18 03:50:00,
2013-03-17 20:55:00,37.6,37.4,30.13,West,270,1.0,2.0,99,0.01,,,0.08,meteohub,2013-03-18 03:55:00,
2013-03-17 21:00:00,36.1,36.0,30.13,North,0,1.0,2.0,99,0.01,,,0.08,meteohub,2013-03-18 04:00:00,
2013-03-17 21:05:00,36.7,36.5,30.14,West,270,0.0,2.0,99,0.01,,,0.08,meteohub,2013-03-18 04:05:00,
2013-03-17 21:10:00,35.2,35.1,30.14,SW,225,1.0,2.0,99,0.01,,,0.08,meteohub,2013-03-18 04:10:00,
2013-03-17 21:15:00,34.2,34.0,30.14,SE,135,1.0,1.0,99,0.01,,,0.08,meteohub,2013-03-18 04:15:00,
2013-03-17 21:20:00,36.3,36.1,30.14,West,270,1.0,1.0,99,0.01,,,0.08,meteohub,2013-03-18 04:20:00,
2013-03-17 21:25:00,43.3,43.2,30.13,SW,225,1.0,1.0,99,0.01,,,0.08,meteohub,2013-03-18 04:25:00,
2013-03-17 21:30:00,35.2,35.1,30.14,WSW,248,1.0,2.0,99,0.00,,,0.08,meteohub,2013-03-18 04:30:00,
2013-03-17 21:35:00,39.9,39.7,30.14,West,270,2.0,2.0,99,0.00,,,0.08,meteohub,2013-03-18 04:35:00,
2013-03-17 21:40:00,35.4,35.2,30.14,SW,225,0.0,2.0,99,0.00,,,0.08,meteohub,2013-03-18 04:40:00,
2013-03-17 21:45:00,35.1,34.9,30.14,WSW,248,2.0,2.0,99,0.00,,,0.08,meteohub,2013-03-18 04:45:00,
2013-03-17 21:50:00,34.9,34.7,30.14,WSW,248,2.0,2.0,99,0.00,,,0.08,meteohub,2013-03-18 04:50:00,
2013-03-17 21:55:00,34.7,34.5,30.14,South,180,1.0,2.0,99,0.01,,,0.09,meteohub,2013-03-18 04:55:00,
2013-03-17 22:00:00,35.8,35.6,30.14,West,270,0.0,2.0,99,0.01,,,0.09,meteohub,2013-03-18 05:00:00,
2013-03-17 22:05:00,35.6,35.4,30.14,West,270,1.0,2.0,99,0.01,,,0.09,meteohub,2013-03-18 05:05:00,
2013-03-17 22:10:00,34.3,34.2,30.14,South,180,1.0,2.0,99,0.01,,,0.09,meteohub,2013-03-18 05:10:00,
2013-03-17 22:15:00,34.7,34.5,30.14,NE,45,1.0,2.0,99,0.01,,,0.09,meteohub,2013-03-18 05:15:00,
2013-03-17 22:20:00,35.1,34.9,30.14,WSW,248,0.0,2.0,99,0.01,,,0.09,meteohub,2013-03-18 05:20:00,
2013-03-17 22:45:00,35.1,34.9,30.14,WSW,248,0.0,1.0,99,0.01,,,0.09,meteohub,2013-03-18 05:45:00,
2013-03-17 22:50:00,35.1,34.9,30.14,WSW,248,0.0,1.0,99,0.01,,,0.09,meteohub,2013-03-18 05:50:00,
2013-03-17 22:55:00,35.1,34.9,30.14,WSW,248,0.0,0.0,99,0.00,,,0.09,meteohub,2013-03-18 05:55:00,
2013-03-17 23:00:00,35.1,34.9,30.14,WSW,248,0.0,1.0,99,0.00,,,0.09,meteohub,2013-03-18 06:00:00,
2013-03-17 23:05:00,39.9,39.7,30.14,West,270,1.0,1.0,99,0.00,,,0.09,meteohub,2013-03-18 06:05:00,
2013-03-17 23:10:00,36.0,35.8,30.14,West,270,0.0,1.0,99,0.00,,,0.09,meteohub,2013-03-18 06:10:00,
2013-03-17 23:15:00,43.2,43.0,30.14,SW,225,0.0,1.0,99,0.00,,,0.09,meteohub,2013-03-18 06:15:00,
2013-03-17 23:20:00,35.4,35.2,30.14,WSW,248,0.0,1.0,99,0.00,,,0.09,meteohub,2013-03-18 06:20:00,
2013-03-17 23:25:00,35.2,35.1,30.14,SE,135,0.0,2.0,99,0.00,,,0.09,meteohub,2013-03-18 06:25:00,
2013-03-17 23:30:00,43.5,43.3,30.14,WSW,248,1.0,2.0,99,0.00,,,0.09,meteohub,2013-03-18 06:30:00,
2013-03-17 23:35:00,35.6,35.4,30.13,South,180,2.0,3.0,99,0.00,,,0.09,meteohub,2013-03-18 06:35:00,
2013-03-17 23:40:00,36.1,36.0,30.13,SW,225,0.0,3.0,99,0.00,,,0.09,meteohub,2013-03-18 06:40:00,
2013-03-17 23:45:00,36.9,36.7,30.13,West,270,2.0,2.0,99,0.00,,,0.09,meteohub,2013-03-18 06:45:00,
2013-03-17 23:50:00,49.5,49.3,30.12,SE,135,1.0,4.0,99,0.00,,,0.09,meteohub,2013-03-18 06:50:00,
2013-03-17 23:55:00,43.3,43.2,30.13,SE,135,3.0,7.0,99,0.00,,,0.09,meteohub,2013-03-18 06:55:00,